[[{"header":{"parameterUnit":"m.s-1","parameterCategory":1,"la1":30.2992,"la2":30.254,"lo1":-89.0895,"lo2":-89.0443,"dy":0.0025,"dx":0.0025,"nx":19,"ny":19,"refTime":"2026-04-23T21:00:00:Z","depth":0,"parameterNumber":2,"parameterNumberName":"U-component_of_WINDS"},"data":[0,0,0,-4.7197,-4.7199,-4.7278,-4.7278,-4.739,-4.7391,0,0,0,0,0,0,0,0,0,0,0,-4.718,-4.7181,-4.7197,-4.7199,-4.7278,-4.7278,-4.7389,-4.7391,0,0,0,0,0,0,0,0,0,0,0,-4.718,-4.7181,-4.7182,-4.7199,-4.7278,-4.7278,-4.7389,-4.7326,0,0,0,0,0,0,0,0,0,0,-4.7247,-4.7238,-4.7181,-4.7182,-4.72,-4.7278,-4.7279,-4.7322,-4.733,-4.7358,0,-4.7386,0,-4.7391,-4.7399,-4.7399,0,0,0,-4.7194,-4.7232,-4.7248,-4.7182,-4.7201,-4.7278,-4.7241,-4.7326,-4.7335,-4.7368,-4.7388,-4.7392,-4.7392,-4.74,-4.74,-4.7586,-4.7587,0,0,-4.7189,-4.7198,-4.7242,-4.7253,-4.7243,-4.7238,-4.7244,-4.7331,-4.7353,-4.7388,-4.7394,-4.7394,-4.7401,-4.7401,-4.7585,-4.7587,0,0,0,-4.718,-4.7195,-4.7208,-4.7249,-4.7263,-4.7241,-4.7247,-4.7349,-4.7353,-4.7395,-4.7396,-4.7401,-4.7403,-4.7584,-4.7586,-4.7649,0,0,0,-4.7178,-4.719,-4.7206,-4.7212,-4.7261,-4.7307,-4.7263,-4.7346,-4.7356,-4.7395,-4.7401,-4.7404,-4.7583,-4.7585,-4.7644,-4.7676,0,0,0,-4.7173,-4.7189,-4.7203,-4.7213,-4.7247,-4.7305,-4.7314,-4.7348,-4.7357,-4.7399,-4.7404,-4.7582,-4.7585,-4.7641,-4.767,-4.7728,0,0,0,-4.717,-4.7257,-4.7204,-4.7302,-4.7247,-4.7345,-4.7313,-4.7386,-4.743,-4.7402,-4.7583,-4.7586,-4.7639,-4.7666,-4.7724,-4.7777,-4.78,0,0,-4.7284,-4.7271,-4.7328,-4.7283,-4.7393,-4.7332,-4.7451,-4.7483,-4.7479,-4.7551,-4.7555,-4.7646,-4.767,-4.7727,-4.7931,-4.7949,0,0,0,-4.7367,-4.7408,-4.7435,-4.7479,-4.7507,-4.7533,-4.7547,-4.7559,-4.762,-4.7518,-4.7683,-4.7697,-4.773,-4.7755,-4.7771,-4.7798,-4.7598,-4.7598,-4.7597,-4.7539,-4.7531,-4.7625,-4.7628,-4.767,-4.7685,-4.7718,-4.7737,-4.7715,-4.7755,-4.7775,-4.79,-4.793,-4.7941,-4.797,-4.7804,-4.7804,-4.7805,-4.7805,-4.7705,-4.7761,-4.7734,-4.7814,-4.7806,-4.7873,-4.7892,-4.7874,-4.7936,-4.7883,-4.7912,-4.7854,-4.7962,-4.7987,-4.7809,-4.7809,-4.7808,-4.7808,-4.7807,-4.7815,-4.7841,-4.7856,-4.792,-4.797,-4.7969,-4.803,-4.802,-4.8011,-4.804,-4.806,-4.8059,-4.8056,-4.8051,-4.8051,-4.8052,-4.8052,-4.8052,-4.8053,-4.7922,-4.7938,-4.7991,-4.803,-4.8058,-4.8093,-4.8111,-4.8137,-4.8164,-4.8152,-4.8152,-4.8126,-4.7975,-4.7936,-4.8059,-4.8058,-4.8057,-4.8057,-4.8056,-4.809,-4.8052,-4.8133,-4.8161,-4.8208,-4.8258,-4.8246,-4.8302,-4.8323,-4.8353,-4.8323,-4.8213,-4.8198,-4.8186,-4.8153,-4.8325,-4.8325,-4.8325,-4.8325,-4.8182,-4.8175,-4.8257,-4.8303,-4.8346,-4.8345,-4.8437,-4.8453,-4.8463,-4.8475,-4.845,-4.8407,-4.8395,-4.8387,-4.837,-4.8339,-4.8555,-4.8555,-4.8555,-4.8284,-4.8281,-4.8362,-4.8373,-4.8409,-4.844,-4.8527,-4.8581,-4.8584,-4.8564,-4.8485,-4.8475,-4.8406,-4.8384,-4.8359,-4.8333,-4.8277,0,0]},{"header":{"parameterUnit":"m.s-1","parameterCategory":1,"la1":30.2992,"la2":30.254,"lo1":-89.0895,"lo2":-89.0443,"dy":0.0025,"dx":0.0025,"nx":19,"ny":19,"refTime":"2026-04-23T21:00:00:Z","depth":0,"parameterNumber":3,"parameterNumberName":"V-component_of_WINDS"},"data":[0,0,0,3.1224,3.1224,3.1208,3.1208,3.1182,3.1182,0,0,0,0,0,0,0,0,0,0,0,3.1226,3.1226,3.1224,3.1223,3.1208,3.1208,3.1182,3.1182,0,0,0,0,0,0,0,0,0,0,0,3.1226,3.1226,3.1226,3.1223,3.1208,3.1208,3.1182,3.1196,0,0,0,0,0,0,0,0,0,0,3.1211,3.1211,3.1226,3.1226,3.1223,3.1208,3.1208,3.1196,3.1195,3.1187,0,3.118,0,3.1181,3.118,3.118,0,0,0,3.1225,3.1213,3.1211,3.1225,3.1223,3.1208,3.1215,3.1195,3.1194,3.1185,3.118,3.1179,3.118,3.1179,3.1179,3.1134,3.1134,0,0,3.1225,3.1221,3.1212,3.121,3.1214,3.1216,3.1215,3.1194,3.1188,3.118,3.1179,3.118,3.1179,3.1179,3.1135,3.1134,0,0,0,3.1227,3.1222,3.1221,3.1211,3.1209,3.1215,3.1214,3.1189,3.1189,3.1178,3.118,3.1179,3.1179,3.1135,3.1135,3.1118,0,0,0,3.1228,3.1223,3.1221,3.1218,3.1209,3.1199,3.1209,3.1191,3.1189,3.118,3.1179,3.1178,3.1135,3.1135,3.1119,3.111,0,0,0,3.1228,3.1223,3.122,3.1218,3.1212,3.1199,3.1198,3.1191,3.1189,3.118,3.1178,3.1136,3.1135,3.112,3.1112,3.1098,0,0,0,3.1226,3.1203,3.122,3.1195,3.1212,3.119,3.1199,3.1182,3.1172,3.1179,3.1135,3.1135,3.112,3.1113,3.1099,3.1084,3.1078,0,0,3.1195,3.12,3.1186,3.12,3.1175,3.1193,3.1165,3.1158,3.116,3.1143,3.1141,3.1119,3.1112,3.1098,3.1048,3.1043,0,0,0,3.1175,3.1165,3.1159,3.115,3.1147,3.1143,3.1141,3.1139,3.1126,3.1151,3.111,3.1106,3.1098,3.1091,3.1087,3.1081,3.1132,3.1132,3.1132,3.1123,3.113,3.1107,3.1113,3.1104,3.1105,3.1098,3.1095,3.1102,3.1093,3.1087,3.1056,3.1048,3.1045,3.1038,3.1081,3.1081,3.108,3.108,3.1078,3.1065,3.1078,3.1061,3.1068,3.1053,3.1054,3.106,3.1046,3.106,3.1053,3.1067,3.104,3.1034,3.1079,3.1079,3.108,3.108,3.108,3.1044,3.1039,3.104,3.103,3.1021,3.1027,3.1015,3.1021,3.1026,3.1019,3.1014,3.1015,3.1015,3.1017,3.1017,3.1017,3.1017,3.1017,3.1017,3.1009,3.101,3.0999,3.0996,3.0993,3.0989,3.0992,3.0988,3.0985,3.099,3.099,3.0998,3.1037,3.1046,3.1015,3.1015,3.1015,3.1016,3.1016,3.0959,3.0972,3.0956,3.0953,3.0951,3.0943,3.0952,3.0945,3.0942,3.0936,3.0947,3.0975,3.0979,3.0982,3.0989,3.0946,3.0946,3.0946,3.0946,3.093,3.0934,3.092,3.0915,3.0911,3.0919,3.0901,3.0903,3.0907,3.0907,3.0914,3.0925,3.0928,3.093,3.0935,3.0942,3.0887,3.0887,3.0887,3.09,3.0904,3.0887,3.0894,3.0894,3.0893,3.0876,3.0869,3.0876,3.0885,3.0906,3.0909,3.0926,3.0932,3.0938,3.0945,3.0958,0,0]}]]